This is the latest recevied weather packets stored in our database for station/object K6CED. If no packets are shown the sender has not sent any weather packets the latest 10 day(s).
| Time | Temp. | Humidity | Pressure | Rain* | Wind** | Luminosity | Snow |
|---|---|---|---|---|---|---|---|
| 1787617160 | 34.44° C | 40% | 1015.1 hPa | 0 mm | - | 145 W/m² | - |
| 1787616855 | 35° C | 38% | 1014.9 hPa | 0 mm | - | 214 W/m² | - |
| 1787616554 | 35.56° C | 37% | 1014.9 hPa | 0 mm | - | 369 W/m² | - |
| 1787616253 | 35.56° C | 36% | 1014.9 hPa | 0 mm | - | 393 W/m² | - |
| 1787615952 | 35.56° C | 36% | 1014.9 hPa | 0 mm | - | 397 W/m² | - |
| 1787615647 | 36.67° C | 33% | 1015 hPa | 0 mm | - | 424 W/m² | - |
| 1787615342 | 36.67° C | 31% | 1014.9 hPa | 0 mm | - | 438 W/m² | - |
| 1787615038 | 36.67° C | 32% | 1014.9 hPa | 0 mm | - | 456 W/m² | - |
| 1787614734 | 37.22° C | 32% | 1014.9 hPa | 0 mm | - | 451 W/m² | - |
| 1787614431 | 36.67° C | 30% | 1014.9 hPa | 0 mm | - | 424 W/m² | - |
| 1787614127 | 36.67° C | 30% | 1014.8 hPa | 0 mm | - | 431 W/m² | - |
| 1787613823 | 37.22° C | 30% | 1014.9 hPa | 0 mm | - | 441 W/m² | - |
| 1787613518 | 37.78° C | 29% | 1014.7 hPa | 0 mm | - | 459 W/m² | - |
| 1787613213 | 37.78° C | 28% | 1014.7 hPa | 0 mm | - | 478 W/m² | - |
| 1787612910 | 37.78° C | 28% | 1014.6 hPa | 0 mm | - | 498 W/m² | - |
| 1787612606 | 37.78° C | 27% | 1014.8 hPa | 0 mm | - | 529 W/m² | - |
| 1787612302 | 37.78° C | 27% | 1014.7 hPa | 0 mm | - | 548 W/m² | - |
| 1787611998 | 38.33° C | 27% | 1014.6 hPa | 0 mm | - | 568 W/m² | - |
| 1787611694 | 38.33° C | 26% | 1014.8 hPa | 0 mm | - | 580 W/m² | - |
| 1787611390 | 38.89° C | 25% | 1014.7 hPa | 0 mm | - | 594 W/m² | - |
| 1787611085 | 38.89° C | 25% | 1014.7 hPa | 0 mm | - | 618 W/m² | - |
| 1787610781 | 39.44° C | 26% | 1014.7 hPa | 0 mm | - | 624 W/m² | - |
| 1787610476 | 39.44° C | 26% | 1014.7 hPa | 0 mm | - | 637 W/m² | - |
| 1787610175 | 38.89° C | 26% | 1014.8 hPa | 0 mm | - | 651 W/m² | - |
| 1787609875 | 38.89° C | 27% | 1014.7 hPa | 0 mm | - | 693 W/m² | - |
* Rain latest hour (hover to see other rain measurements)
** Current wind speed in m/s (hover to see current wind gust speed)